Location: Unspecified
(0.0000°N, 0.0000°E)
Time: 20:36:15
(UTC+00:00)

Vanguard 1 - Pass Details

Date: 16 June 2025
Orbit: 649 x 3822 km, 34.2° (Epoch: 12 July)

Event Time Altitude Azimuth Distance (km) Brightness Sun altitude
Rises 19:03:58 0° 300° (WNW) 7,647 16.5 -14.4°
Reaches altitude 10° 19:09:46 10° 297° (WNW) 6,306 15.6 -15.8°
Maximum altitude 19:27:35 59° 221° (SW) 2,468 12.1 -19.8°
Enters shadow 19:34:49 23° 150° (SSE) 3,018 12.1 -21.5°
